Location: ??? ?????
(30.6482°N, 60.5850°E)
Time: 18:22:09
(UTC+00:00)

YAOGAN 1 - Pass Details

Date: 09 April 2020
Orbit: 618 x 620 km, 97.9° (Epoch: 05 June)

Event Time Altitude Azimuth Distance (km) Brightness Sun altitude
Rises 15:13:27 0° 187° (S) 2,878 5.9 -11.6°
Reaches altitude 10° 15:15:47 10° 196° (SSW) 1,977 5.1 -12.1°
Maximum altitude 15:19:42 34° 262° (W) 1,023 4.3 -12.9°
Drops below altitude 10° 15:23:38 10° 327° (NNW) 1,989 5.9 -13.7°
Sets 15:26:00 0° 337° (NNW) 2,899 6.6 -14.2°
